Terminal Aerodrome Forecast
Issued by NWS

Home | Current Version | Previous Version | Text Only | Print | Product List | Glossary On
Versions: 1 2 3 4 5 6 7 8 9 10 11 12 13 14
073
FTUS46 KEKA 270530
TAFCEC
TAF
KCEC 270530Z 2706/2806 19008KT P6SM OVC007
     FM270800 00000KT 3SM BR OVC004
     FM271700 17006KT 6SM BR BKN007
     FM271900 19008KT P6SM BKN023=

USA.gov is the U.S. government's official web portal to all federal, state and local government web resources and services.